Time,TemperatureF,DewpointF,PressureIn,WindDirection,WindDirectionDegrees,WindSpeedMPH,WindSpeedGustMPH,Humidity,HourlyPrecipIn,Conditions,Clouds,dailyrainin,SoftwareType,DateUTC
2013-06-13 00:01:00,71.1,69.3,29.81,ESE,116,2.0,2.0,94,0.00,,---,0.00,VWS V14.01,2013-06-13 04:01:00,
2013-06-13 00:06:00,71.4,69.6,29.81,SSW,204,1.0,8.0,94,0.00,,---,0.00,VWS V14.01,2013-06-13 04:06:00,
2013-06-13 00:11:00,71.7,69.6,29.81,ESE,121,2.0,8.0,93,0.00,,---,0.00,VWS V14.01,2013-06-13 04:11:00,
2013-06-13 00:17:00,72.0,69.9,29.82,SE,142,2.0,12.0,93,0.00,,---,0.00,VWS V14.01,2013-06-13 04:17:00,
2013-06-13 00:22:00,72.3,69.8,29.81,South,184,3.0,12.0,92,0.00,,---,0.00,VWS V14.01,2013-06-13 04:22:00,
2013-06-13 00:27:00,72.4,69.9,29.81,SSW,204,5.0,13.0,92,0.00,,---,0.00,VWS V14.01,2013-06-13 04:27:00,
2013-06-13 00:32:00,72.4,69.6,29.81,WSW,245,10.0,13.0,91,0.00,,---,0.00,VWS V14.01,2013-06-13 04:32:00,
2013-06-13 00:37:00,72.5,69.7,29.81,SE,139,8.0,13.0,91,0.00,,---,0.00,VWS V14.01,2013-06-13 04:37:00,
2013-06-13 00:42:00,72.5,69.7,29.81,SSW,199,5.0,13.0,91,0.00,,---,0.00,VWS V14.01,2013-06-13 04:42:00,
2013-06-13 00:47:00,72.6,69.5,29.81,SSW,206,5.0,14.0,90,0.00,,---,0.00,VWS V14.01,2013-06-13 04:47:00,
2013-06-13 00:52:00,72.6,69.5,29.81,SW,221,3.0,14.0,90,0.00,,---,0.00,VWS V14.01,2013-06-13 04:52:00,
2013-06-13 00:57:00,72.6,69.5,29.81,WNW,293,8.0,14.0,90,0.00,,---,0.00,VWS V14.01,2013-06-13 04:57:00,
2013-06-13 01:02:00,72.6,69.5,29.81,SW,221,8.0,13.0,90,0.00,,---,0.00,VWS V14.01,2013-06-13 05:02:00,
2013-06-13 01:07:00,72.7,69.6,29.81,WSW,239,5.0,13.0,90,0.00,,---,0.00,VWS V14.01,2013-06-13 05:07:00,
2013-06-13 01:12:00,72.6,69.5,29.81,SSW,209,7.0,13.0,90,0.00,,---,0.00,VWS V14.01,2013-06-13 05:12:00,
2013-06-13 01:17:00,72.6,69.5,29.81,SW,223,3.0,16.0,90,0.00,,---,0.00,VWS V14.01,2013-06-13 05:17:00,
2013-06-13 01:22:00,72.6,69.5,29.81,South,184,4.0,16.0,90,0.00,,---,0.00,VWS V14.01,2013-06-13 05:22:00,
2013-06-13 01:27:00,72.5,69.4,29.81,NNW,330,2.0,16.0,90,0.00,,---,0.00,VWS V14.01,2013-06-13 05:27:00,
2013-06-13 01:32:00,72.4,69.6,29.80,WNW,285,3.0,9.0,91,0.00,,---,0.00,VWS V14.01,2013-06-13 05:32:00,
2013-06-13 01:37:00,72.3,69.5,29.81,WSW,255,6.0,11.0,91,0.00,,---,0.00,VWS V14.01,2013-06-13 05:37:00,
2013-06-13 01:42:00,72.3,69.5,29.80,SW,219,7.0,14.0,91,0.00,,---,0.00,VWS V14.01,2013-06-13 05:42:00,
2013-06-13 01:47:00,72.3,69.5,29.80,SW,215,4.0,14.0,91,0.00,,---,0.00,VWS V14.01,2013-06-13 05:47:00,
2013-06-13 01:52:00,72.2,69.4,29.81,West,270,2.0,14.0,91,0.00,,---,0.00,VWS V14.01,2013-06-13 05:52:00,
2013-06-13 01:57:00,72.0,69.2,29.81,SW,218,2.0,14.0,91,0.00,,---,0.00,VWS V14.01,2013-06-13 05:57:00,
2013-06-13 02:02:00,71.9,69.4,29.81,West,280,3.0,13.0,92,0.00,,---,0.00,VWS V14.01,2013-06-13 06:02:00,
2013-06-13 02:07:00,71.9,69.4,29.80,SSW,210,4.0,13.0,92,0.00,,---,0.00,VWS V14.01,2013-06-13 06:07:00,
2013-06-13 02:12:00,71.7,69.3,29.80,WSW,253,4.0,13.0,92,0.00,,---,0.00,VWS V14.01,2013-06-13 06:12:00,
2013-06-13 02:17:00,71.7,69.3,29.80,SW,232,7.0,13.0,92,0.00,,---,0.00,VWS V14.01,2013-06-13 06:17:00,
2013-06-13 02:22:00,71.6,69.2,29.80,SSW,211,6.0,13.0,92,0.00,,---,0.00,VWS V14.01,2013-06-13 06:22:00,
2013-06-13 02:27:00,71.5,69.1,29.79,WSW,256,1.0,13.0,92,0.00,,---,0.00,VWS V14.01,2013-06-13 06:27:00,
2013-06-13 02:32:00,71.4,69.0,29.79,SSW,207,5.0,16.0,92,0.00,,---,0.00,VWS V14.01,2013-06-13 06:32:00,
2013-06-13 02:37:00,71.5,69.1,29.79,SW,229,6.0,16.0,92,0.00,,---,0.00,VWS V14.01,2013-06-13 06:37:00,
2013-06-13 02:42:00,71.5,68.7,29.79,WSW,239,7.0,16.0,91,0.00,,---,0.00,VWS V14.01,2013-06-13 06:42:00,
2013-06-13 02:48:00,71.5,68.7,29.78,SW,214,7.0,16.0,91,0.00,,---,0.00,VWS V14.01,2013-06-13 06:48:00,
2013-06-13 02:53:00,71.4,68.6,29.78,South,176,1.0,16.0,91,0.00,,---,0.00,VWS V14.01,2013-06-13 06:53:00,
2013-06-13 02:58:00,71.4,68.6,29.78,SSE,153,7.0,16.0,91,0.00,,---,0.00,VWS V14.01,2013-06-13 06:58:00,
2013-06-13 03:03:00,71.4,68.3,29.77,WSW,243,8.0,13.0,90,0.00,,---,0.00,VWS V14.01,2013-06-13 07:03:00,
2013-06-13 03:08:00,71.5,68.1,29.77,SSW,207,7.0,17.0,89,0.00,,---,0.00,VWS V14.01,2013-06-13 07:08:00,
2013-06-13 03:13:00,71.5,68.1,29.77,SW,236,4.0,17.0,89,0.00,,---,0.00,VWS V14.01,2013-06-13 07:13:00,
2013-06-13 03:18:00,71.4,68.0,29.77,SE,139,6.0,17.0,89,0.00,,---,0.00,VWS V14.01,2013-06-13 07:18:00,
2013-06-13 03:23:00,71.5,67.8,29.77,SW,215,4.0,17.0,88,0.00,,---,0.00,VWS V14.01,2013-06-13 07:23:00,
2013-06-13 03:28:00,71.5,67.8,29.76,North,358,2.0,17.0,88,0.00,,---,0.00,VWS V14.01,2013-06-13 07:28:00,
2013-06-13 03:33:00,71.6,67.5,29.75,SSW,210,4.0,14.0,87,0.00,,---,0.00,VWS V14.01,2013-06-13 07:33:00,
2013-06-13 03:38:00,71.7,67.6,29.75,West,281,5.0,16.0,87,0.00,,---,0.00,VWS V14.01,2013-06-13 07:38:00,
2013-06-13 03:43:00,71.8,67.4,29.75,SSW,213,6.0,16.0,86,0.00,,---,0.00,VWS V14.01,2013-06-13 07:43:00,
2013-06-13 03:48:00,71.9,67.5,29.75,SSW,210,9.0,16.0,86,0.00,,---,0.00,VWS V14.01,2013-06-13 07:48:00,
2013-06-13 03:53:00,72.0,67.2,29.74,South,177,4.0,19.0,85,0.00,,---,0.00,VWS V14.01,2013-06-13 07:53:00,
2013-06-13 03:58:00,72.1,67.3,29.74,SW,226,10.0,28.0,85,0.00,,---,0.00,VWS V14.01,2013-06-13 07:58:00,
2013-06-13 04:03:00,72.0,67.2,29.74,SW,226,14.0,22.0,85,0.00,,---,0.00,VWS V14.01,2013-06-13 08:03:00,
2013-06-13 04:08:00,72.0,67.2,29.73,WSW,245,9.0,22.0,85,0.00,,---,0.00,VWS V14.01,2013-06-13 08:08:00,
2013-06-13 04:13:00,72.0,66.9,29.73,SW,232,15.0,22.0,84,0.00,,---,0.00,VWS V14.01,2013-06-13 08:13:00,
2013-06-13 04:18:00,71.9,66.8,29.73,SW,235,15.0,22.0,84,0.00,,---,0.00,VWS V14.01,2013-06-13 08:18:00,
2013-06-13 04:23:00,71.8,67.1,29.73,SSE,161,3.0,22.0,85,0.00,,---,0.00,VWS V14.01,2013-06-13 08:23:00,
2013-06-13 04:28:00,71.7,66.9,29.73,SSW,205,13.0,22.0,85,0.00,,---,0.00,VWS V14.01,2013-06-13 08:28:00,
2013-06-13 04:33:00,71.6,66.9,29.73,SSW,210,12.0,16.0,85,0.00,,---,0.00,VWS V14.01,2013-06-13 08:33:00,
2013-06-13 04:38:00,71.5,66.8,29.72,West,264,4.0,16.0,85,0.00,,---,0.00,VWS V14.01,2013-06-13 08:38:00,
2013-06-13 04:43:00,71.3,66.9,29.72,SE,146,7.0,16.0,86,0.00,,---,0.00,VWS V14.01,2013-06-13 08:43:00,
2013-06-13 04:48:00,71.3,66.9,29.72,WNW,297,4.0,21.0,86,0.00,,---,0.00,VWS V14.01,2013-06-13 08:48:00,
2013-06-13 04:53:00,71.2,66.8,29.72,WNW,292,6.0,21.0,86,0.00,,---,0.00,VWS V14.01,2013-06-13 08:53:00,
2013-06-13 04:58:00,71.1,66.7,29.72,SSE,165,8.0,21.0,86,0.00,,---,0.00,VWS V14.01,2013-06-13 08:58:00,
2013-06-13 05:03:00,71.1,66.7,29.72,SW,224,14.0,21.0,86,0.00,,---,0.00,VWS V14.01,2013-06-13 09:03:00,
2013-06-13 05:09:00,71.0,66.6,29.71,SW,226,12.0,23.0,86,0.00,,---,0.00,VWS V14.01,2013-06-13 09:09:00,
2013-06-13 05:14:00,70.8,66.7,29.71,SW,224,12.0,23.0,87,0.00,,---,0.00,VWS V14.01,2013-06-13 09:14:00,
2013-06-13 05:19:00,70.7,66.7,29.71,SW,225,3.0,23.0,87,0.00,,---,0.00,VWS V14.01,2013-06-13 09:19:00,
2013-06-13 05:24:00,70.5,66.8,29.71,WSW,240,15.0,23.0,88,0.00,,---,0.00,VWS V14.01,2013-06-13 09:24:00,
2013-06-13 05:29:00,70.4,66.7,29.71,SSW,196,4.0,23.0,88,0.00,,---,0.00,VWS V14.01,2013-06-13 09:29:00,
2013-06-13 05:34:00,70.4,66.7,29.70,SW,226,7.0,23.0,88,0.00,,---,0.00,VWS V14.01,2013-06-13 09:34:00,
2013-06-13 05:39:00,70.4,66.7,29.70,SW,236,5.0,23.0,88,0.00,,---,0.00,VWS V14.01,2013-06-13 09:39:00,
2013-06-13 05:44:00,70.4,66.7,29.69,SW,226,3.0,23.0,88,0.00,,---,0.00,VWS V14.01,2013-06-13 09:44:00,
2013-06-13 05:49:00,70.3,66.6,29.70,WNW,285,4.0,23.0,88,0.00,,---,0.00,VWS V14.01,2013-06-13 09:49:00,
2013-06-13 05:54:00,70.3,66.6,29.70,WSW,240,7.0,23.0,88,0.00,,---,0.00,VWS V14.01,2013-06-13 09:54:00,
2013-06-13 05:59:00,70.3,66.6,29.70,SE,134,5.0,23.0,88,0.00,,---,0.00,VWS V14.01,2013-06-13 09:59:00,
2013-06-13 06:04:00,70.3,66.6,29.70,WSW,238,2.0,18.0,88,0.00,,---,0.00,VWS V14.01,2013-06-13 10:04:00,
2013-06-13 06:09:00,70.2,66.8,29.70,WSW,250,8.0,18.0,89,0.00,,---,0.00,VWS V14.01,2013-06-13 10:09:00,
2013-06-13 06:14:00,70.3,66.9,29.69,SSW,198,7.0,18.0,89,0.00,,---,0.00,VWS V14.01,2013-06-13 10:14:00,
2013-06-13 06:19:00,70.2,66.8,29.70,SSW,203,3.0,18.0,89,0.00,,---,0.00,VWS V14.01,2013-06-13 10:19:00,
2013-06-13 06:24:00,70.2,66.8,29.70,WNW,283,4.0,18.0,89,0.00,,---,0.00,VWS V14.01,2013-06-13 10:24:00,
2013-06-13 06:29:00,70.2,66.8,29.70,South,188,3.0,18.0,89,0.00,,---,0.00,VWS V14.01,2013-06-13 10:29:00,
2013-06-13 06:34:00,70.3,66.9,29.70,WSW,238,4.0,16.0,89,0.00,,---,0.00,VWS V14.01,2013-06-13 10:34:00,
2013-06-13 06:39:00,70.3,66.9,29.70,WSW,239,10.0,18.0,89,0.00,,---,0.00,VWS V14.01,2013-06-13 10:39:00,
2013-06-13 06:44:00,70.2,66.8,29.69,SSW,204,11.0,18.0,89,0.00,,---,0.00,VWS V14.01,2013-06-13 10:44:00,
2013-06-13 06:49:00,70.3,66.9,29.68,West,271,4.0,18.0,89,0.00,,---,0.00,VWS V14.01,2013-06-13 10:49:00,
2013-06-13 06:54:00,70.4,67.0,29.68,SW,228,6.0,18.0,89,0.00,,---,0.00,VWS V14.01,2013-06-13 10:54:00,
2013-06-13 06:59:00,70.4,67.0,29.68,SW,235,9.0,9.0,89,0.00,,---,0.00,VWS V14.01,2013-06-13 10:59:00,
2013-06-13 07:04:00,70.4,67.0,29.69,SSW,211,10.0,18.0,89,0.00,,---,0.00,VWS V14.01,2013-06-13 11:04:00,
2013-06-13 07:09:00,70.4,67.0,29.68,SW,218,6.0,18.0,89,0.00,,---,0.00,VWS V14.01,2013-06-13 11:09:00,
2013-06-13 07:15:00,70.4,67.0,29.69,WSW,249,7.0,18.0,89,0.00,,---,0.00,VWS V14.01,2013-06-13 11:15:00,
2013-06-13 07:20:00,70.5,67.1,29.68,SW,217,6.0,18.0,89,0.00,,---,0.00,VWS V14.01,2013-06-13 11:20:00,
2013-06-13 07:25:00,70.6,67.2,29.68,WSW,241,3.0,20.0,89,0.00,,---,0.00,VWS V14.01,2013-06-13 11:25:00,
2013-06-13 07:30:00,70.6,67.2,29.68,WSW,256,8.0,11.0,89,0.00,,---,0.00,VWS V14.01,2013-06-13 11:30:00,
2013-06-13 07:35:00,70.7,67.3,29.68,SSW,213,3.0,16.0,89,0.00,,---,0.00,VWS V14.01,2013-06-13 11:35:00,
2013-06-13 07:40:00,70.7,67.3,29.67,SSW,210,6.0,17.0,89,0.00,,---,0.00,VWS V14.01,2013-06-13 11:40:00,
2013-06-13 07:45:00,70.8,67.4,29.68,South,188,8.0,18.0,89,0.00,,---,0.00,VWS V14.01,2013-06-13 11:45:00,
2013-06-13 07:50:00,70.9,67.5,29.67,SW,214,11.0,18.0,89,0.00,,---,0.00,VWS V14.01,2013-06-13 11:50:00,
2013-06-13 07:55:00,70.9,67.2,29.67,SSW,211,10.0,22.0,88,0.00,,---,0.00,VWS V14.01,2013-06-13 11:55:00,
2013-06-13 08:00:00,70.9,67.5,29.67,SW,225,9.0,9.0,89,0.00,,---,0.00,VWS V14.01,2013-06-13 12:00:00,
2013-06-13 08:05:00,71.1,67.4,29.66,SW,221,19.0,19.0,88,0.00,,---,0.00,VWS V14.01,2013-06-13 12:05:00,
2013-06-13 08:10:00,71.3,67.6,29.67,West,260,5.0,19.0,88,0.00,,---,0.00,VWS V14.01,2013-06-13 12:10:00,
2013-06-13 08:15:00,71.4,67.3,29.65,SW,227,10.0,23.0,87,0.00,,---,0.00,VWS V14.01,2013-06-13 12:15:00,
2013-06-13 08:20:00,71.6,67.5,29.65,WSW,248,9.0,23.0,87,0.00,,---,0.00,VWS V14.01,2013-06-13 12:20:00,
2013-06-13 08:25:00,71.7,67.6,29.66,SSW,207,5.0,23.0,87,0.00,,---,0.00,VWS V14.01,2013-06-13 12:25:00,
2013-06-13 08:30:00,71.7,67.6,29.66,SW,225,9.0,21.0,87,0.00,,---,0.00,VWS V14.01,2013-06-13 12:30:00,
2013-06-13 08:35:00,71.5,67.4,29.65,SW,227,12.0,23.0,87,0.00,,---,0.00,VWS V14.01,2013-06-13 12:35:00,
2013-06-13 08:40:00,71.3,67.2,29.66,SSE,163,6.0,23.0,87,0.00,,---,0.00,VWS V14.01,2013-06-13 12:40:00,
2013-06-13 08:45:00,71.2,67.5,29.66,South,188,9.0,23.0,88,0.00,,---,0.00,VWS V14.01,2013-06-13 12:45:00,
2013-06-13 08:50:00,71.0,67.3,29.66,West,260,5.0,23.0,88,0.00,,---,0.00,VWS V14.01,2013-06-13 12:50:00,
2013-06-13 08:55:00,71.1,67.4,29.66,SSW,200,10.0,23.0,88,0.00,,---,0.00,VWS V14.01,2013-06-13 12:55:00,
2013-06-13 09:00:00,71.3,67.6,29.65,SSE,158,11.0,11.0,88,0.00,,---,0.00,VWS V14.01,2013-06-13 13:00:00,
2013-06-13 09:05:00,71.7,67.6,29.65,SSW,200,7.0,19.0,87,0.00,,---,0.00,VWS V14.01,2013-06-13 13:05:00,
2013-06-13 09:10:00,72.3,68.2,29.65,SW,224,4.0,19.0,87,0.00,,---,0.00,VWS V14.01,2013-06-13 13:10:00,
2013-06-13 09:15:00,72.8,68.4,29.65,SW,221,19.0,24.0,86,0.00,,---,0.00,VWS V14.01,2013-06-13 13:15:00,
2013-06-13 09:20:00,73.2,68.4,29.65,SW,231,10.0,24.0,85,0.00,,---,0.00,VWS V14.01,2013-06-13 13:20:00,
2013-06-13 09:25:00,73.4,68.6,29.65,South,180,8.0,24.0,85,0.00,,---,0.00,VWS V14.01,2013-06-13 13:25:00,
2013-06-13 09:30:00,73.4,68.3,29.64,ESE,117,6.0,11.0,84,0.00,,---,0.00,VWS V14.01,2013-06-13 13:30:00,
2013-06-13 09:35:00,73.3,68.2,29.64,SSW,207,5.0,18.0,84,0.00,,---,0.00,VWS V14.01,2013-06-13 13:35:00,
2013-06-13 09:40:00,73.2,68.4,29.64,WSW,248,14.0,18.0,85,0.00,,---,0.00,VWS V14.01,2013-06-13 13:40:00,
2013-06-13 09:45:00,73.0,68.2,29.64,SSW,194,5.0,18.0,85,0.00,,---,0.00,VWS V14.01,2013-06-13 13:45:00,
2013-06-13 09:50:00,72.7,67.9,29.64,West,264,8.0,18.0,85,0.00,,---,0.00,VWS V14.01,2013-06-13 13:50:00,
2013-06-13 09:55:00,72.5,68.1,29.64,SSW,211,5.0,18.0,86,0.00,,---,0.00,VWS V14.01,2013-06-13 13:55:00,
2013-06-13 10:00:00,72.3,67.9,29.64,South,188,12.0,20.0,86,0.00,,---,0.00,VWS V14.01,2013-06-13 14:00:00,
2013-06-13 10:05:00,72.2,67.8,29.64,SSW,199,10.0,20.0,86,0.00,,---,0.00,VWS V14.01,2013-06-13 14:05:00,
2013-06-13 10:10:00,72.2,68.1,29.64,SW,228,3.0,20.0,87,0.00,,---,0.00,VWS V14.01,2013-06-13 14:10:00,
2013-06-13 10:15:00,72.3,68.2,29.63,South,172,5.0,20.0,87,0.00,,---,0.00,VWS V14.01,2013-06-13 14:15:00,
2013-06-13 10:20:00,72.3,67.9,29.63,SSW,194,4.0,20.0,86,0.00,,---,0.00,VWS V14.01,2013-06-13 14:20:00,
2013-06-13 10:25:00,72.2,68.1,29.62,SSW,204,5.0,20.0,87,0.00,,---,0.00,VWS V14.01,2013-06-13 14:25:00,
2013-06-13 10:30:00,72.4,68.3,29.61,SSW,210,9.0,10.0,87,0.00,,---,0.00,VWS V14.01,2013-06-13 14:30:00,
2013-06-13 10:36:00,72.9,68.5,29.60,WSW,252,4.0,14.0,86,0.00,,---,0.00,VWS V14.01,2013-06-13 14:36:00,
2013-06-13 10:41:00,72.8,68.4,29.61,SW,226,10.0,15.0,86,0.00,,---,0.00,VWS V14.01,2013-06-13 14:41:00,
2013-06-13 10:46:00,72.7,67.9,29.60,SW,233,8.0,19.0,85,0.00,,---,0.00,VWS V14.01,2013-06-13 14:46:00,
2013-06-13 10:51:00,72.7,68.3,29.61,South,191,6.0,19.0,86,0.00,,---,0.00,VWS V14.01,2013-06-13 14:51:00,
2013-06-13 10:56:00,72.7,68.6,29.61,SW,228,5.0,19.0,87,0.00,,---,0.00,VWS V14.01,2013-06-13 14:56:00,
2013-06-13 11:01:00,72.8,68.4,29.62,West,273,7.0,14.0,86,0.00,,---,0.00,VWS V14.01,2013-06-13 15:01:00,
2013-06-13 11:06:00,72.6,68.2,29.62,WSW,256,14.0,14.0,86,0.00,,---,0.00,VWS V14.01,2013-06-13 15:06:00,
2013-06-13 11:11:00,72.4,68.0,29.62,NW,320,4.0,15.0,86,0.00,,---,0.00,VWS V14.01,2013-06-13 15:11:00,
2013-06-13 11:16:00,72.2,67.8,29.60,SW,214,13.0,15.0,86,0.00,,---,0.00,VWS V14.01,2013-06-13 15:16:00,
2013-06-13 11:21:00,72.0,67.9,29.61,SSW,197,5.0,15.0,87,0.00,,---,0.00,VWS V14.01,2013-06-13 15:21:00,
2013-06-13 11:26:00,71.9,67.8,29.60,SSW,200,7.0,18.0,87,0.00,,---,0.00,VWS V14.01,2013-06-13 15:26:00,
2013-06-13 11:31:00,71.8,67.7,29.61,SSE,155,4.0,12.0,87,0.00,,---,0.00,VWS V14.01,2013-06-13 15:31:00,
2013-06-13 11:36:00,71.8,67.7,29.61,SW,228,4.0,15.0,87,0.00,,---,0.00,VWS V14.01,2013-06-13 15:36:00,
2013-06-13 11:41:00,71.6,67.9,29.60,West,260,3.0,15.0,88,0.00,,---,0.00,VWS V14.01,2013-06-13 15:41:00,
2013-06-13 11:46:00,71.3,67.6,29.60,WNW,284,4.0,15.0,88,0.01,,---,0.01,VWS V14.01,2013-06-13 15:46:00,
2013-06-13 11:51:00,70.7,67.9,29.61,WNW,297,1.0,15.0,91,0.05,,---,0.05,VWS V14.01,2013-06-13 15:51:00,
2013-06-13 11:56:00,69.6,66.9,29.60,North,359,1.0,15.0,91,0.19,,---,0.19,VWS V14.01,2013-06-13 15:56:00,
2013-06-13 12:01:00,68.0,65.6,29.59,NNE,25,3.0,7.0,92,0.24,,---,0.24,VWS V14.01,2013-06-13 16:01:00,
2013-06-13 12:06:00,67.2,65.4,29.60,East,92,1.0,13.0,94,0.33,,---,0.33,VWS V14.01,2013-06-13 16:06:00,
2013-06-13 12:11:00,67.1,65.6,29.60,WNW,290,3.0,13.0,95,0.34,,---,0.34,VWS V14.01,2013-06-13 16:11:00,
2013-06-13 12:16:00,67.3,66.1,29.60,SW,229,2.0,13.0,96,0.34,,---,0.34,VWS V14.01,2013-06-13 16:16:00,
2013-06-13 12:21:00,67.7,66.5,29.60,SSW,208,4.0,13.0,96,0.34,,---,0.34,VWS V14.01,2013-06-13 16:21:00,
2013-06-13 12:26:00,68.6,67.7,29.59,SSW,211,4.0,13.0,97,0.34,,---,0.34,VWS V14.01,2013-06-13 16:26:00,
2013-06-13 12:31:00,69.7,68.8,29.60,West,281,3.0,5.0,97,0.34,,---,0.34,VWS V14.01,2013-06-13 16:31:00,
2013-06-13 12:36:00,69.9,68.4,29.60,West,271,5.0,12.0,95,0.34,,---,0.34,VWS V14.01,2013-06-13 16:36:00,
2013-06-13 12:41:00,69.8,68.3,29.60,SW,229,4.0,12.0,95,0.34,,---,0.34,VWS V14.01,2013-06-13 16:41:00,
2013-06-13 12:46:00,69.8,68.3,29.58,SW,218,12.0,12.0,95,0.38,,---,0.38,VWS V14.01,2013-06-13 16:46:00,
2013-06-13 12:51:00,69.6,67.8,29.59,WNW,284,2.0,13.0,94,0.39,,---,0.39,VWS V14.01,2013-06-13 16:51:00,
2013-06-13 12:56:00,69.6,68.1,29.58,WNW,283,4.0,13.0,95,0.39,,---,0.39,VWS V14.01,2013-06-13 16:56:00,
2013-06-13 13:01:00,69.7,68.2,29.58,WNW,287,1.0,7.0,95,0.18,,---,0.39,VWS V14.01,2013-06-13 17:01:00,
2013-06-13 13:06:00,69.8,68.3,29.57,South,184,5.0,14.0,95,0.18,,---,0.39,VWS V14.01,2013-06-13 17:06:00,
2013-06-13 13:11:00,69.9,68.4,29.58,SE,145,2.0,14.0,95,0.19,,---,0.40,VWS V14.01,2013-06-13 17:11:00,
2013-06-13 13:16:00,70.3,68.8,29.57,South,188,7.0,14.0,95,0.19,,---,0.40,VWS V14.01,2013-06-13 17:16:00,
2013-06-13 13:21:00,71.0,69.5,29.58,SW,225,10.0,14.0,95,0.19,,---,0.40,VWS V14.01,2013-06-13 17:21:00,
2013-06-13 13:26:00,70.8,69.0,29.57,WNW,297,6.0,19.0,94,0.19,,---,0.40,VWS V14.01,2013-06-13 17:26:00,
2013-06-13 13:31:00,70.7,68.9,29.58,South,169,8.0,11.0,94,0.06,,---,0.40,VWS V14.01,2013-06-13 17:31:00,
2013-06-13 13:36:00,70.5,68.7,29.59,SSW,193,5.0,12.0,94,0.06,,---,0.40,VWS V14.01,2013-06-13 17:36:00,
2013-06-13 13:41:00,70.3,68.5,29.58,SW,227,4.0,15.0,94,0.06,,---,0.40,VWS V14.01,2013-06-13 17:41:00,
2013-06-13 13:46:00,70.2,68.4,29.57,SSE,166,5.0,15.0,94,0.06,,---,0.40,VWS V14.01,2013-06-13 17:46:00,
2013-06-13 13:51:00,70.2,68.4,29.57,SSW,199,3.0,15.0,94,0.06,,---,0.40,VWS V14.01,2013-06-13 17:51:00,
2013-06-13 13:56:00,70.3,68.5,29.58,WSW,243,0.0,15.0,94,0.06,,---,0.40,VWS V14.01,2013-06-13 17:56:00,
2013-06-13 14:01:00,70.1,68.3,29.58,West,279,3.0,8.0,94,0.01,,---,0.40,VWS V14.01,2013-06-13 18:01:00,
2013-06-13 14:06:00,67.7,64.0,29.58,WNW,300,8.0,20.0,88,0.05,,---,0.44,VWS V14.01,2013-06-13 18:06:00,
2013-06-13 14:11:00,65.4,63.0,29.58,NW,304,7.0,20.0,92,0.10,,---,0.49,VWS V14.01,2013-06-13 18:11:00,
2013-06-13 14:16:00,64.1,62.3,29.59,WNW,283,1.0,20.0,94,0.16,,---,0.55,VWS V14.01,2013-06-13 18:16:00,
2013-06-13 14:22:00,63.3,61.8,29.60,NW,316,5.0,20.0,95,0.17,,---,0.56,VWS V14.01,2013-06-13 18:22:00,
2013-06-13 14:27:00,63.1,61.9,29.59,WSW,243,6.0,20.0,96,0.17,,---,0.56,VWS V14.01,2013-06-13 18:27:00,
2013-06-13 14:32:00,63.0,62.1,29.60,West,259,1.0,5.0,97,0.17,,---,0.57,VWS V14.01,2013-06-13 18:32:00,
2013-06-13 14:37:00,62.9,62.0,29.60,NNE,15,6.0,6.0,97,0.17,,---,0.57,VWS V14.01,2013-06-13 18:37:00,
2013-06-13 14:42:00,62.9,62.0,29.61,WSW,255,3.0,12.0,97,0.17,,---,0.57,VWS V14.01,2013-06-13 18:42:00,
2013-06-13 14:47:00,63.0,62.1,29.61,SSE,167,9.0,14.0,97,0.17,,---,0.57,VWS V14.01,2013-06-13 18:47:00,
2013-06-13 14:52:00,63.0,62.1,29.61,West,263,1.0,14.0,97,0.17,,---,0.57,VWS V14.01,2013-06-13 18:52:00,
2013-06-13 14:57:00,63.0,62.4,29.61,SW,226,1.0,14.0,98,0.17,,---,0.57,VWS V14.01,2013-06-13 18:57:00,
2013-06-13 15:02:00,63.0,62.4,29.61,SW,224,3.0,6.0,98,0.17,,---,0.57,VWS V14.01,2013-06-13 19:02:00,
2013-06-13 15:07:00,63.1,62.5,29.61,ESE,122,1.0,8.0,98,0.17,,---,0.57,VWS V14.01,2013-06-13 19:07:00,
2013-06-13 15:12:00,63.2,62.6,29.62,WNW,297,3.0,8.0,98,0.17,,---,0.57,VWS V14.01,2013-06-13 19:12:00,
2013-06-13 15:17:00,63.3,62.7,29.62,West,259,1.0,9.0,98,0.18,,---,0.58,VWS V14.01,2013-06-13 19:17:00,
2013-06-13 15:22:00,63.3,62.7,29.62,WNW,292,5.0,9.0,98,0.19,,---,0.59,VWS V14.01,2013-06-13 19:22:00,
2013-06-13 15:27:00,63.4,62.8,29.62,WSW,246,0.0,9.0,98,0.19,,---,0.59,VWS V14.01,2013-06-13 19:27:00,
2013-06-13 15:32:00,63.7,63.1,29.62,North,356,6.0,6.0,98,0.03,,---,0.59,VWS V14.01,2013-06-13 19:32:00,
2013-06-13 15:37:00,63.8,63.2,29.63,WNW,297,9.0,9.0,98,0.03,,---,0.59,VWS V14.01,2013-06-13 19:37:00,
2013-06-13 15:42:00,63.7,62.8,29.63,West,278,5.0,10.0,97,0.03,,---,0.59,VWS V14.01,2013-06-13 19:42:00,
2013-06-13 15:47:00,63.9,63.0,29.63,WNW,283,2.0,15.0,97,0.03,,---,0.59,VWS V14.01,2013-06-13 19:47:00,
2013-06-13 15:52:00,64.2,63.3,29.63,SSE,148,4.0,15.0,97,0.03,,---,0.59,VWS V14.01,2013-06-13 19:52:00,
2013-06-13 15:57:00,64.4,63.2,29.63,WNW,285,2.0,15.0,96,0.03,,---,0.59,VWS V14.01,2013-06-13 19:57:00,
2013-06-13 16:02:00,64.5,63.3,29.63,WNW,301,2.0,8.0,96,0.02,,---,0.59,VWS V14.01,2013-06-13 20:02:00,
2013-06-13 16:07:00,64.6,63.1,29.63,SSW,201,4.0,13.0,95,0.02,,---,0.59,VWS V14.01,2013-06-13 20:07:00,
2013-06-13 16:13:00,64.5,63.0,29.62,WSW,255,5.0,13.0,95,0.02,,---,0.59,VWS V14.01,2013-06-13 20:13:00,
2013-06-13 16:17:00,64.5,63.0,29.62,SE,146,2.0,13.0,95,0.02,,---,0.59,VWS V14.01,2013-06-13 20:17:00,
2013-06-13 16:22:00,64.5,62.7,29.62,SW,217,5.0,13.0,94,0.02,,---,0.59,VWS V14.01,2013-06-13 20:22:00,
2013-06-13 16:28:00,64.6,62.8,29.61,West,264,2.0,13.0,94,0.02,,---,0.59,VWS V14.01,2013-06-13 20:28:00,
2013-06-13 16:33:00,65.0,62.9,29.62,WNW,297,4.0,12.0,93,0.00,,---,0.59,VWS V14.01,2013-06-13 20:33:00,
2013-06-13 16:38:00,64.9,62.5,29.62,WSW,246,9.0,14.0,92,0.00,,---,0.59,VWS V14.01,2013-06-13 20:38:00,
2013-06-13 16:43:00,64.5,62.4,29.62,SSW,203,1.0,14.0,93,0.00,,---,0.59,VWS V14.01,2013-06-13 20:43:00,
2013-06-13 16:48:00,64.1,62.0,29.62,NNE,15,3.0,14.0,93,0.00,,---,0.59,VWS V14.01,2013-06-13 20:48:00,
2013-06-13 16:53:00,63.4,61.7,29.62,WNW,283,3.0,14.0,94,0.01,,---,0.60,VWS V14.01,2013-06-13 20:53:00,
2013-06-13 16:58:00,63.0,61.5,29.62,ENE,64,1.0,14.0,95,0.01,,---,0.60,VWS V14.01,2013-06-13 20:58:00,
2013-06-13 17:03:00,62.8,61.7,29.62,NNE,17,4.0,14.0,96,0.01,,---,0.60,VWS V14.01,2013-06-13 21:03:00,
2013-06-13 17:08:00,62.6,61.5,29.62,West,271,3.0,15.0,96,0.01,,---,0.60,VWS V14.01,2013-06-13 21:08:00,
2013-06-13 17:13:00,62.7,61.5,29.62,WNW,300,6.0,15.0,96,0.01,,---,0.60,VWS V14.01,2013-06-13 21:13:00,
2013-06-13 17:18:00,62.7,61.8,29.62,NNE,33,1.0,15.0,97,0.01,,---,0.60,VWS V14.01,2013-06-13 21:18:00,
2013-06-13 17:23:00,62.7,61.8,29.62,SW,219,7.0,15.0,97,0.01,,---,0.60,VWS V14.01,2013-06-13 21:23:00,
2013-06-13 17:28:00,62.7,61.5,29.61,South,191,5.0,19.0,96,0.01,,---,0.60,VWS V14.01,2013-06-13 21:28:00,
2013-06-13 17:33:00,62.8,61.7,29.62,WSW,254,11.0,16.0,96,0.01,,---,0.60,VWS V14.01,2013-06-13 21:33:00,
2013-06-13 17:38:00,63.0,61.5,29.62,WSW,248,2.0,18.0,95,0.01,,---,0.60,VWS V14.01,2013-06-13 21:38:00,
2013-06-13 17:43:00,63.1,61.9,29.62,SSW,211,9.0,18.0,96,0.01,,---,0.60,VWS V14.01,2013-06-13 21:43:00,
2013-06-13 17:48:00,63.3,61.8,29.63,NNW,333,3.0,18.0,95,0.01,,---,0.60,VWS V14.01,2013-06-13 21:48:00,
2013-06-13 17:53:00,63.4,62.2,29.63,WNW,300,7.0,18.0,96,0.01,,---,0.60,VWS V14.01,2013-06-13 21:53:00,
2013-06-13 17:58:00,63.4,62.0,29.63,WNW,287,2.0,18.0,95,0.01,,---,0.60,VWS V14.01,2013-06-13 21:58:00,
2013-06-13 18:03:00,63.3,61.8,29.63,WSW,255,2.0,7.0,95,0.00,,---,0.60,VWS V14.01,2013-06-13 22:03:00,
2013-06-13 18:08:00,63.2,61.8,29.64,SSW,207,2.0,11.0,95,0.00,,---,0.60,VWS V14.01,2013-06-13 22:08:00,
2013-06-13 18:13:00,63.2,61.8,29.64,NW,305,7.0,11.0,95,0.00,,---,0.60,VWS V14.01,2013-06-13 22:13:00,
2013-06-13 18:18:00,63.0,61.5,29.64,SSW,198,10.0,12.0,95,0.00,,---,0.60,VWS V14.01,2013-06-13 22:18:00,
2013-06-13 18:23:00,63.0,61.8,29.64,West,277,1.0,13.0,96,0.00,,---,0.60,VWS V14.01,2013-06-13 22:23:00,
2013-06-13 18:28:00,63.0,61.5,29.63,NW,324,2.0,14.0,95,0.00,,---,0.60,VWS V14.01,2013-06-13 22:28:00,